Weather History for NW Arkansas Airport, AR

Change the Weather History Date:

Friday, August 9, 2013

  Actual Average Record
Temperature  
Mean Temperature 76 °F -  
Max Temperature 84 °F - - ()
Min Temperature 69 °F - - ()
Cooling Degree Days 10    
Growing Degree Days 26 (Base 50)    
Moisture  
Dew Point 70 °F    
Average Humidity 87    
Maximum Humidity 100    
Minimum Humidity 65    
Precipitation  
Precipitation 0.08 in - - ()
Sea Level Pressure  
Sea Level Pressure 29.98 in    
Wind  
Wind Speed 5 mph (WNW)    
Max Wind Speed 10 mph    
Max Gust Speed -    
Visibility 10 miles    
Events Rain , Thunderstorm    
T = Trace of Precipitation, MM = Missing Value Source: NWS Daily Summary

Daily Weather History Graph

Daily Weather History Graph

Search for Another Location

Airport:

Trip Planner

Search our weather history database for the weather conditions in past years. The results will help you decide how hot, cold, wet, or windy it might be!

Date:

Astronomy

Aug. 09, 2013 Rise Set
Actual Time 6:30 AM CDT 8:14 PM CDT
Civil Twilight 6:02 AM CDT 8:41 PM CDT
Nautical Twilight 5:29 AM CDT 9:15 PM CDT
Astronomical Twilight 4:53 AM CDT 9:50 PM CDT
Moon 9:10 AM CDT (8/9) 9:31 PM CDT (8/9)
Length of Visible Light 14h 39m
Length of Day
13h 43m
Waxing Crescent, 8% of the Moon is Illuminated
Aug 9
Waxing Crescent
Aug 14
First Quarter
Aug 20
Full
Aug 28
Last Quarter
Sep 5
New

Hourly Weather History & Observations

Time (CDT) Temp. Heat Index Dew Point Humidity Pressure Visibility Wind Dir Wind Speed Gust Speed Precip Events Conditions
12:53 AM 73.9 °F - 72.0 °F 93% 29.93 in 10.0 mi East 4.6 mph - N/A   Clear
1:53 AM 73.0 °F - 72.0 °F 96% 29.92 in 10.0 mi SSE 4.6 mph - N/A   Clear
2:53 AM 72.0 °F - 71.1 °F 97% 29.91 in 10.0 mi South 3.5 mph - N/A   Clear
3:53 AM 72.0 °F - 71.1 °F 97% 29.93 in 10.0 mi Calm Calm - N/A   Mostly Cloudy
4:36 AM 71.6 °F - 71.6 °F 100% 30.01 in 10.0 mi WSW 10.4 mph - N/A Thunderstorm Mostly Cloudy
4:53 AM 72.0 °F - 70.0 °F 93% 29.96 in 10.0 mi WSW 10.4 mph - 0.00 in Rain , Thunderstorm Light Thunderstorms and Rain
5:07 AM 71.6 °F - 69.8 °F 94% 30.01 in 10.0 mi WSW 6.9 mph - 0.00 in Rain Light Rain
5:14 AM 71.6 °F - 69.8 °F 94% 30.01 in 10.0 mi West 8.1 mph - 0.00 in Rain Light Rain
5:45 AM 71.6 °F - 69.8 °F 94% 30.01 in 10.0 mi WSW 6.9 mph - 0.02 in Rain Light Rain
5:53 AM 71.1 °F - 69.1 °F 93% 29.96 in 10.0 mi WSW 3.5 mph - 0.02 in Rain Light Rain
6:53 AM 70.0 °F - 69.1 °F 97% 29.98 in 5.0 mi SSE 10.4 mph - 0.04 in Rain Rain
7:43 AM 69.8 °F - 69.8 °F 100% 30.01 in 10.0 mi South 6.9 mph - 0.01 in Rain Light Rain
7:53 AM 70.0 °F - 70.0 °F 100% 29.98 in 10.0 mi South 9.2 mph - 0.01 in   Mostly Cloudy
8:39 AM 69.8 °F - 69.8 °F 100% 29.97 in 10.0 mi South 9.2 mph - 0.00 in Rain Light Rain
8:53 AM 70.0 °F - 68.0 °F 93% 29.94 in 10.0 mi SSW 8.1 mph - 0.00 in   Scattered Clouds
9:53 AM 73.0 °F - 69.1 °F 87% 29.93 in 10.0 mi SSE 4.6 mph - 0.00 in   Partly Cloudy
10:53 AM 75.9 °F - 69.1 °F 79% 29.96 in 10.0 mi NNW 3.5 mph - N/A   Clear
11:53 AM 75.9 °F - 69.1 °F 79% 29.98 in 10.0 mi NW 6.9 mph - N/A   Partly Cloudy
12:53 PM 78.1 °F - 69.1 °F 74% 29.99 in 10.0 mi NW 6.9 mph - N/A   Mostly Cloudy
1:53 PM 79.0 °F - 70.0 °F 74% 29.99 in 10.0 mi NE 3.5 mph - 0.01 in   Mostly Cloudy
2:53 PM 81.0 °F 84.1 °F 69.1 °F 67% 29.97 in 10.0 mi Variable 4.6 mph - N/A   Clear
3:53 PM 81.0 °F 84.4 °F 70.0 °F 69% 29.97 in 10.0 mi NNW 6.9 mph - N/A   Mostly Cloudy
4:53 PM 81.0 °F 84.4 °F 70.0 °F 69% 29.96 in 10.0 mi North 5.8 mph - 0.00 in   Overcast
5:53 PM 82.0 °F 85.5 °F 69.1 °F 65% 29.96 in 10.0 mi Calm Calm - N/A   Overcast
6:53 PM 80.1 °F 83.2 °F 70.0 °F 71% 29.97 in 10.0 mi Calm Calm - N/A   Scattered Clouds
7:09 PM 80.6 °F 83.9 °F 69.8 °F 70% 30.01 in 10.0 mi Calm Calm - N/A   Mostly Cloudy
7:53 PM 78.1 °F - 72.0 °F 81% 29.99 in 10.0 mi North 5.8 mph - N/A   Mostly Cloudy
8:25 PM 75.2 °F - 71.6 °F 89% 30.02 in 10.0 mi North 3.5 mph - N/A   Mostly Cloudy
8:53 PM 73.9 °F - 71.1 °F 91% 29.99 in 10.0 mi North 4.6 mph - N/A   Clear
9:53 PM 73.9 °F - 71.1 °F 91% 30.00 in 10.0 mi NNE 4.6 mph - N/A   Clear
10:53 PM 73.0 °F - 70.0 °F 90% 30.01 in 10.0 mi NNE 5.8 mph - N/A   Partly Cloudy
11:53 PM 72.0 °F - 70.0 °F 93% 30.03 in 10.0 mi NNE 4.6 mph - N/A   Mostly Cloudy